Regional Weather Roundup
Issued by NWS Jackson, KY

Home | Current Version | Previous Version | Text Only | Print | Product List | Glossary Off
Versions: 1 2 3 4 5 6 7 8 9 10 11 12 13 14 15 16 17 18 19 20 21 22 23 24 25 26 27 28 29 30 31 32 33 34 35 36 37 38 39 40 41 42 43 44 45 46 47 48 49 50

000
ASUS43 KJKL 231319
RWRJKL

EAST KENTUCKY HOURLY WEATHER ROUNDUP
NATIONAL WEATHER SERVICE JACKSON KY
900 AM EDT THU OCT 23 2014

NOTE: "FAIR" INDICATES FEW OR NO CLOUDS BELOW 12,000 FEET WITH
NO SIGNIFICANT WEATHER AND/OR OBSTRUCTIONS TO VISIBILITY.

* THESE REPORTS ARE NOT UNDER NWS QUALITY CONTROL AND MAY NOT
  REPORT WEATHER SUCH AS PRECIPITATION AND FOG.

KYZ079-080-083-085-087-088-110-112-115-119-120-231400
...EASTERN KENTUCKY...

CITY           SKY/WX    TMP DP  RH WIND       PRES   REMARKS
JACKSON        CLOUDY    47  39  74 VRB3      30.23R
LONDON         CLOUDY    48  38  68 E3        30.24S
SOMERSET*      CLOUDY    46  37  71 E7        30.25S
MONTICELLO*    CLOUDY    48  42  80 E6        30.25S
MIDDLESBORO*   CLOUDY    47  39  74 NE3       30.24R
HARLAN APT*    CLOUDY    45  36  70 E5        30.23R
HAZARD APT*    CLOUDY    46  43  87 CALM      30.23S
BLACK MTN*       N/A     34  34 100 N5          N/A  WCI  30
PIKEVILLE APT* CLOUDY    45  41  87 CALM      30.22S
BIG SANDY*     CLOUDY    46  43  88 CALM      30.23R
MOREHEAD APT*  CLOUDY    46  41  81 CALM      30.26S
ASHLAND*       CLOUDY    48  39  71 CALM      30.23R
$$

KYZ035-036-041-042-044-050-067-078-099-231400
...CENTRAL KENTUCKY...

CITY           SKY/WX    TMP DP  RH WIND       PRES   REMARKS
MT STERLING*   PTSUNNY   46  41  81 CALM      30.25S
FLEMING/MASON* SUNNY     43  41  93 CALM      30.26F
DANVILLE*      CLOUDY    43  37  81 CALM      30.25S
RICHMOND*      CLOUDY    46  39  76 E3        30.24S
LEXINGTON      MOSUNNY   48  38  68 E6        30.25S
FRANKFORT      SUNNY     42  38  85 CALM      30.24S
$$

KYZ091>093-OHZ055-061-077-WVZ005-015-034-035-042-231400
...SOUTHERN OHIO/WEST VIRGINIA...

CITY           SKY/WX    TMP DP  RH WIND       PRES   REMARKS
COVINGTON      SUNNY     44  39  82 CALM      30.25S
COLUMBUS       CLOUDY    43  39  87 N7        30.24R FOG
DAYTON         FOG       38  37  97 CALM      30.26R VSB 1/2
WILMINGTON     SUNNY     42  38  85 N7        30.24S FOG
HUNTINGTON     CLOUDY    47  42  83 NW5       30.23R
CHARLESTON     CLOUDY    47  42  83 W3        30.21R
PINEVILLE*     CLOUDY    47  45  93 MISG      30.24R
BECKLEY        CLOUDY    42  39  89 N8        30.17R
BLUEFIELD      CLOUDY    43  37  79 NW3       30.17R
$$

VAZ002-007-008-TNZ017-027-036-066-071-231400
...SOUTHWEST VIRGINIA/EAST TENNESSEE...

CITY           SKY/WX    TMP DP  RH WIND       PRES   REMARKS
WISE*          CLOUDY    43  41  93 N3        30.21S
JONESVILLE*    CLOUDY    46  39  76 CALM      30.25R
ABINGDON*      CLOUDY    46  40  78 CALM      30.20R
BRISTOL        CLOUDY    48  38  68 N3        30.22R
KNOXVILLE      MOSUNNY   46  41  82 N7        30.21R
OAK RIDGE      CLOUDY    47  42  83 CALM      30.24R
CROSSVILLE     SUNNY     40  37  89 E6        30.20F
NASHVILLE      MOSUNNY   45  41  86 CALM      30.23S
$$

...KEY TO REMARKS...
VSB - VISIBILITY IN MILES
WCI - WIND CHILL INDEX
HX  - HEAT INDEX

$$



USA.gov is the U.S. government's official web portal to all federal, state and local government web resources and services.